TimeEDT,TemperatureF,Dew PointF,Humidity,Sea Level PressureIn,VisibilityMPH,Wind Direction,Wind SpeedMPH,Gust SpeedMPH,PrecipitationIn,Events,Conditions,WindDirDegrees,DateUTC
12:15 AM,57.2,57.2,100,30.06,0.2,Calm,Calm,-,N/A,Fog,Fog,0,2012-10-05 04:15:00
12:35 AM,57.2,57.2,100,30.07,0.2,Calm,Calm,-,N/A,Fog,Fog,0,2012-10-05 04:35:00
12:55 AM,55.4,55.4,100,30.07,0.2,Calm,Calm,-,N/A,Fog,Fog,0,2012-10-05 04:55:00
1:15 AM,55.4,55.4,100,30.07,0.2,Calm,Calm,-,N/A,Fog,Fog,0,2012-10-05 05:15:00
1:35 AM,55.4,55.4,100,30.07,0.2,Calm,Calm,-,N/A,Fog,Fog,0,2012-10-05 05:35:00
1:55 AM,53.6,53.6,100,30.07,0.2,Calm,Calm,-,N/A,Fog,Fog,0,2012-10-05 05:55:00
2:15 AM,55.4,55.4,100,30.06,0.5,Calm,Calm,-,N/A,Fog,Fog,0,2012-10-05 06:15:00
2:35 AM,53.6,53.6,100,30.07,0.2,Calm,Calm,-,N/A,Fog,Fog,0,2012-10-05 06:35:00
2:55 AM,53.6,53.6,100,30.06,0.5,Calm,Calm,-,N/A,Fog,Fog,0,2012-10-05 06:55:00
3:15 AM,53.6,53.6,100,30.06,0.8,Calm,Calm,-,N/A,,Overcast,0,2012-10-05 07:15:00
3:35 AM,51.8,51.8,100,30.06,0.2,Calm,Calm,-,N/A,Fog,Fog,0,2012-10-05 07:35:00
3:55 AM,51.8,51.8,100,30.06,0.8,Calm,Calm,-,N/A,,Overcast,0,2012-10-05 07:55:00
4:15 AM,51.8,51.8,100,30.06,0.5,Calm,Calm,-,N/A,Fog,Fog,0,2012-10-05 08:15:00
4:35 AM,51.8,51.8,100,30.06,0.5,Calm,Calm,-,N/A,Fog,Fog,0,2012-10-05 08:35:00
4:55 AM,51.8,51.8,100,30.06,0.5,Calm,Calm,-,N/A,Fog,Fog,0,2012-10-05 08:55:00
5:15 AM,50.0,50.0,100,30.06,0.5,Calm,Calm,-,N/A,Fog,Fog,0,2012-10-05 09:15:00
5:35 AM,50.0,50.0,100,30.07,0.2,Calm,Calm,-,N/A,Fog,Fog,0,2012-10-05 09:35:00
5:55 AM,50.0,50.0,100,30.07,0.5,Calm,Calm,-,N/A,Fog,Fog,0,2012-10-05 09:55:00
6:15 AM,50.0,50.0,100,30.08,0.2,Calm,Calm,-,N/A,Fog,Fog,0,2012-10-05 10:15:00
6:35 AM,50.0,50.0,100,30.08,0.2,Calm,Calm,-,N/A,Fog,Fog,0,2012-10-05 10:35:00
6:45 AM,51.8,51.8,100,30.08,0.5,Calm,Calm,-,N/A,Fog,Fog,0,2012-10-05 10:45:00
7:00 AM,51.8,50.0,94,30.08,4.0,Calm,Calm,-,N/A,Fog,Patches of Fog,0,2012-10-05 11:00:00
7:45 AM,53.6,51.8,94,30.08,6.0,Calm,Calm,-,N/A,Fog,Clear,0,2012-10-05 11:45:00
8:45 AM,59.0,57.2,94,30.09,10.0,Calm,Calm,-,N/A,,Clear,0,2012-10-05 12:45:00
9:45 AM,64.4,59.0,83,30.09,10.0,Calm,Calm,-,N/A,,Clear,0,2012-10-05 13:45:00
10:45 AM,69.8,59.0,68,30.08,10.0,Calm,Calm,-,N/A,,Clear,0,2012-10-05 14:45:00
11:45 AM,73.4,57.2,57,30.06,10.0,West,4.6,-,N/A,,Clear,260,2012-10-05 15:45:00
12:45 PM,77.0,59.0,54,30.04,10.0,West,8.1,-,N/A,,Clear,260,2012-10-05 16:45:00
1:45 PM,77.0,59.0,54,30.01,10.0,WSW,8.1,-,N/A,,Scattered Clouds,250,2012-10-05 17:45:00
2:45 PM,78.8,59.0,51,29.98,10.0,SSW,5.8,-,N/A,,Scattered Clouds,200,2012-10-05 18:45:00
3:45 PM,78.8,59.0,51,29.97,10.0,SSW,8.1,-,N/A,,Scattered Clouds,210,2012-10-05 19:45:00
4:45 PM,78.8,57.2,47,29.97,10.0,WSW,6.9,-,N/A,,Clear,250,2012-10-05 20:45:00
5:45 PM,77.0,59.0,54,29.97,10.0,SW,6.9,-,N/A,,Clear,220,2012-10-05 21:45:00
6:45 PM,71.6,59.0,64,29.97,10.0,SW,3.5,-,N/A,,Clear,230,2012-10-05 22:45:00
7:45 PM,62.6,60.8,94,29.97,10.0,Calm,Calm,-,N/A,,Clear,0,2012-10-05 23:45:00
8:45 PM,60.8,59.0,94,29.97,10.0,Calm,Calm,-,N/A,,Clear,0,2012-10-06 00:45:00
9:45 PM,59.0,57.2,94,29.97,10.0,Calm,Calm,-,N/A,,Clear,0,2012-10-06 01:45:00
10:55 PM,55.4,55.4,100,29.95,1.0,Calm,Calm,-,N/A,,Mist,0,2012-10-06 02:55:00
11:15 PM,55.4,55.4,100,29.94,0.5,Calm,Calm,-,N/A,Fog,Fog,0,2012-10-06 03:15:00
11:35 PM,55.4,55.4,100,29.94,0.5,Calm,Calm,-,N/A,Fog,Fog,0,2012-10-06 03:35:00
11:55 PM,55.4,55.4,100,29.93,0.8,Calm,Calm,-,N/A,,Mist,0,2012-10-06 03:55:00